Regional Weather Roundup
Issued by NWS Sterling, VA

Home | Current Version | Previous Version | Text Only | Print | Product List | Glossary Off
Versions: 1 2 3 4 5 6 7 8 9 10 11 12 13 14 15 16 17 18 19 20 21 22 23 24 25 26 27 28 29 30 31 32 33 34 35 36 37 38 39 40 41 42 43 44 45 46 47 48 49 50

333
ASUS41 KLWX 200911
RWRLWX

REGIONAL WEATHER ROUNDUP
NATIONAL WEATHER SERVICE BALTIMORE MD/WASHINGTON DC
500 AM EDT SUN MAY 20 2018

Note: "FAIR" indicates few or no clouds below 12,000 feet
with no significant weather and/or obstructions to visibility.
 TC=TEMPERATURE CELSIUS

 * =Non NWS site. Station does not report precipitation (e.g. rain,
    snow, etc.), thunder, or fog.

DCZ001-MDZ009-015-VAZ040>042-051-053>054-201000-
WASHINGTON METRO

CITY           SKY/WX    TMP DP  RH WIND       PRES   REMARKS
WASHINGTON NAT CLOUDY    70  67  90 S9        30.00S
DULLES         CLOUDY    67  67 100 S3        30.00R
ANDREWS AFB    MOCLDY    70  68  92 S9        29.99F
FT BELVOIR     MOCLDY    72  68  88 S5        30.00S
QUANTICO       CLOUDY    73  70  90 SW7       30.02R
COLLEGE PARK*  CLOUDY    70  67  91 CALM      30.00R
LEESBURG*      MOCLDY    63  63 100 S7        30.01S
MANASSAS*      CLOUDY    70  69  97 S6        30.01R
GAITHERSBURG*  CLOUDY    70  68  93 SW5       30.01S

$$

MDZ006>007-011-014-201000-
BALTIMORE METRO

CITY           SKY/WX    TMP DP  RH WIND       PRES   REMARKS
BWI AIRPORT    CLOUDY    70  69  97 VRB3      29.99S
MD SCIENCE CTR   N/A     68  68 100 MISG      29.99F
MARTIN STATE   CLOUDY    70  70 100 SE8       30.01S
ANNAPOLIS      CLOUDY    71  68  90 S7        29.99F
FORT MEADE*    CLOUDY    68  66  94 CALM      30.02S

$$

MDZ012-015-019>023-201000-
MARYLAND EASTERN SHORE

CITY           SKY/WX    TMP DP  RH WIND       PRES   REMARKS
OCEAN CITY     CLOUDY    68  68 100 SW9       30.07S
SALISBURY      CLOUDY    71  70  96 SW10      30.05S
BAY BRIDGE AP* CLOUDY    70  68  94 S9G17     30.01S
CAMBRIDGE*       N/A     72  68  88 S10G18    30.04S
EASTON*        CLOUDY    73  68  86 SW14      30.06S

$$

MDZ017>025-201000-
SOUTHERN MARYLAND

CITY           SKY/WX    TMP DP  RH WIND       PRES   REMARKS
PATUXENT RIVER CLOUDY   N/A N/A N/A S12G20    30.03S
ST INIGOES     NOT AVBL
LEONARDTOWN*   CLOUDY    70  66  88 S9G17     30.04F

$$

MDZ003>005-201000-
NORTH CENTRAL MARYLAND

CITY           SKY/WX    TMP DP  RH WIND       PRES   REMARKS
FREDERICK*     CLOUDY    70  70 100 S6        30.02R
HAGERSTOWN APT FOG       61  60  97 CALM      29.99S VSB 1/4
WESTMINSTER*   CLOUDY    70  70 100 SW9       30.00R

$$

MDZ501>502-201000-
WESTERN MARYLAND

CITY           SKY/WX    TMP DP  RH WIND       PRES   REMARKS
OAKLAND*       CLOUDY    61  61 100 W10G16    30.07R
CUMBERLAND*    CLOUDY    59  59 100 CALM      30.05R

$$

VAZ025>031-201000-
SHENANDOAH VALLEY

CITY           SKY/WX    TMP DP  RH WIND       PRES   REMARKS
WINCHESTER*    FAIR      63  63 100 S5        30.01S
FRONT ROYAL*   FAIR     N/A N/A N/A SW3       29.99S
LURAY*         FAIR      64  64 100 SW6       30.02R
NEW MARKET*    FAIR      65  64  96 CALM      30.01R
STAUNTON*      FAIR      65  64  97 SW5       30.06S
WAYNESBORO*    FAIR      66  65  99 CALM      30.07R

$$

WVZ021-048>050-054>055-201000-
EASTERN WEST VIRGINIA PANHANDLE

CITY           SKY/WX    TMP DP  RH WIND       PRES   REMARKS
MARTINSBURG    FOG       59  59 100 CALM      29.98S VSB 1/4
PETERSBURG*    CLOUDY    60  60  99 CALM      30.02R FOG

$$

VAZ036>039-050-201000-
CENTRAL FOOTHILLS

CITY           SKY/WX    TMP DP  RH WIND       PRES   REMARKS
CHARLOTTESVILL CLOUDY    71  69  93 S9        30.02S
CULPEPER*      FAIR      69  67  94 SW5       30.02R
ORANGE*        CLOUDY    70  68  94 SW8       30.02R
GORDONSVILLE*  CLOUDY    70  70 100 SW8       30.02S
WARRENTON*     CLOUDY    71  67  88 SW7       30.00S

$$

VAZ055>057-201000-
NORTH AND CENTRAL PIEDMONT

CITY           SKY/WX    TMP DP  RH WIND       PRES   REMARKS
FREDERICKSBRG* CLOUDY    72  72 100 SW7       30.01R
STAFFORD*      CLOUDY    72  72 100 S7        30.05S

$$

NCZ024-NYZ072-PAZ021-071-VAZ022-071-201000-
OTHER REGIONAL OBSERVATIONS

CITY           SKY/WX    TMP DP  RH WIND       PRES   REMARKS
NEW YORK CITY  CLOUDY    59  58  96 CALM      30.00F FOG
PHILADELPHIA   CLOUDY    70  67  90 SW13      29.98F
PITTSBURGH     CLOUDY    68  66  93 SW7       29.98R
ROANOKE        FAIR      66  64  93 NW5       30.10R
RICHMOND       CLOUDY    72  68  87 S12G22    30.06S
RALEIGH        CLOUDY    70  69  97 SW8       30.12S

$$

ANZ530>537-201000-
MARINE OBSERVATIONS

STATION/POSITION TIME  TEMP    WIND        PRES
                       AIR SEA DIR/SP/G
                 (UTC) (F)     (DEG/KT/KT) (MB)
THOMAS PT LIGHT  0900   68 64  170/ 15/ 15 1016.7F
BALT KEY BRIDGE  0848   70     170/  7/  7 1015.6S
COVE POINT       0848   71     210/ 12/ 15 1017.5F
LEWISETTA        0848   73 71  230/ 15/ 19 1017.4S
SOLOMONS ISLAND  0848   71 67  210/ 14/ 17 1016.6F
PINEY POINT      0848          230/ 12/ 14   N/A

$$





USA.gov is the U.S. government's official web portal to all federal, state and local government web resources and services.